[[{"header":{"parameterUnit":"m.s-1","parameterCategory":1,"la1":30.2992,"la2":30.254,"lo1":-89.0895,"lo2":-89.0443,"dy":0.0025,"dx":0.0025,"nx":19,"ny":19,"refTime":"2026-04-04T21:00:00:Z","depth":0,"parameterNumber":2,"parameterNumberName":"U-component_of_WINDS"},"data":[0,0,0,-1.0284,-1.0285,-1.0309,-1.0309,-1.0335,-1.0335,0,0,0,0,0,0,0,0,0,0,0,-1.0274,-1.0275,-1.0284,-1.0285,-1.0309,-1.0309,-1.0335,-1.0335,0,0,0,0,0,0,0,0,0,0,0,-1.0274,-1.0275,-1.0275,-1.0285,-1.0309,-1.0309,-1.0335,-1.0318,0,0,0,0,0,0,0,0,0,0,-1.0296,-1.0285,-1.0275,-1.0275,-1.0285,-1.0309,-1.0309,-1.0318,-1.0319,-1.0322,0,-1.0324,0,-1.033,-1.0337,-1.0337,0,0,0,-1.0287,-1.0283,-1.0292,-1.0275,-1.0285,-1.0309,-1.0298,-1.0319,-1.0321,-1.0325,-1.0325,-1.0326,-1.033,-1.0337,-1.0337,-1.0346,-1.0346,0,0,-1.0285,-1.0278,-1.029,-1.0293,-1.0289,-1.0298,-1.0299,-1.032,-1.032,-1.0325,-1.0326,-1.0331,-1.0337,-1.0337,-1.0346,-1.0346,0,0,0,-1.028,-1.0277,-1.0285,-1.0292,-1.0296,-1.0298,-1.03,-1.0319,-1.0322,-1.0327,-1.0331,-1.0337,-1.0337,-1.0346,-1.0346,-1.0336,0,0,0,-1.0279,-1.0274,-1.0284,-1.028,-1.0296,-1.0308,-1.0298,-1.0321,-1.0323,-1.0331,-1.0337,-1.0338,-1.0346,-1.0346,-1.0336,-1.0333,0,0,0,-1.0274,-1.0273,-1.0276,-1.0279,-1.0289,-1.0308,-1.0312,-1.0321,-1.0326,-1.0337,-1.0338,-1.0346,-1.0346,-1.0337,-1.0333,-1.0332,0,0,0,-1.0266,-1.0267,-1.0275,-1.0278,-1.0289,-1.0301,-1.0312,-1.0322,-1.033,-1.0337,-1.0346,-1.0346,-1.0337,-1.0334,-1.0333,-1.033,-1.0328,0,0,-1.0263,-1.0266,-1.0269,-1.0277,-1.0285,-1.0298,-1.0305,-1.032,-1.0329,-1.034,-1.034,-1.0336,-1.0333,-1.0332,-1.0321,-1.0319,0,0,0,-1.0265,-1.0267,-1.0271,-1.0278,-1.0289,-1.0298,-1.0312,-1.0318,-1.0327,-1.0333,-1.0336,-1.0335,-1.0334,-1.0333,-1.0332,-1.0332,-1.0346,-1.0346,-1.0346,-1.0251,-1.0261,-1.0265,-1.0277,-1.0283,-1.0298,-1.0304,-1.0313,-1.0322,-1.0322,-1.0326,-1.0318,-1.0316,-1.0316,-1.0315,-1.0325,-1.0325,-1.0325,-1.0325,-1.0248,-1.0251,-1.0261,-1.0268,-1.0278,-1.0285,-1.0298,-1.0303,-1.031,-1.0316,-1.0317,-1.0322,-1.0314,-1.0314,-1.0325,-1.0325,-1.0325,-1.0325,-1.0325,-1.0239,-1.0243,-1.0248,-1.0259,-1.0265,-1.0277,-1.0283,-1.0292,-1.0301,-1.0301,-1.0305,-1.0305,-1.0306,-1.0302,-1.0302,-1.0302,-1.0302,-1.0302,-1.0302,-1.0229,-1.0235,-1.0239,-1.025,-1.0254,-1.0262,-1.0275,-1.028,-1.0288,-1.0295,-1.0295,-1.0302,-1.0311,-1.0313,-1.0302,-1.0302,-1.0302,-1.0302,-1.0302,-1.0222,-1.0224,-1.023,-1.0235,-1.0247,-1.0252,-1.0263,-1.0273,-1.0278,-1.028,-1.0288,-1.0293,-1.0297,-1.0298,-1.03,-1.0286,-1.0286,-1.0286,-1.0286,-1.0215,-1.0217,-1.0224,-1.0231,-1.0239,-1.0249,-1.0254,-1.0264,-1.0274,-1.0278,-1.0281,-1.0284,-1.0284,-1.0288,-1.029,-1.0291,-1.0276,-1.0276,-1.0276,-1.0211,-1.0214,-1.0217,-1.0227,-1.0236,-1.0244,-1.0249,-1.0256,-1.0269,-1.0276,-1.0281,-1.0281,-1.0286,-1.0287,-1.0294,-1.0296,-1.0299,0,0]},{"header":{"parameterUnit":"m.s-1","parameterCategory":1,"la1":30.2992,"la2":30.254,"lo1":-89.0895,"lo2":-89.0443,"dy":0.0025,"dx":0.0025,"nx":19,"ny":19,"refTime":"2026-04-04T21:00:00:Z","depth":0,"parameterNumber":3,"parameterNumberName":"V-component_of_WINDS"},"data":[0,0,0,4.8355,4.836,4.8573,4.8573,4.8841,4.8844,0,0,0,0,0,0,0,0,0,0,0,4.8292,4.8293,4.8355,4.836,4.8573,4.8574,4.8841,4.8844,0,0,0,0,0,0,0,0,0,0,0,4.8291,4.8293,4.8295,4.8361,4.8572,4.8574,4.884,4.8681,0,0,0,0,0,0,0,0,0,0,4.8475,4.8415,4.8292,4.8295,4.8362,4.8572,4.8574,4.8673,4.8691,4.8744,0,4.8792,0,4.8822,4.8861,4.8862,0,0,0,4.8361,4.8401,4.8459,4.8295,4.8364,4.8572,4.8477,4.8683,4.8703,4.8767,4.8796,4.8806,4.8827,4.8863,4.8864,4.9175,4.9176,0,0,4.8349,4.8328,4.8446,4.8472,4.8441,4.847,4.8483,4.8695,4.8724,4.8797,4.8812,4.8831,4.8865,4.8867,4.9174,4.9175,0,0,0,4.8315,4.832,4.8374,4.8461,4.85,4.8476,4.8492,4.8715,4.8734,4.8815,4.8834,4.8866,4.887,4.9172,4.9174,4.9228,0,0,0,4.8308,4.8301,4.8369,4.8358,4.8496,4.861,4.8506,4.8719,4.8744,4.8833,4.8867,4.8872,4.917,4.9173,4.9223,4.9256,0,0,0,4.8278,4.8297,4.8328,4.8357,4.8448,4.8607,4.8639,4.8725,4.8756,4.8863,4.8873,4.9169,4.9173,4.9219,4.9249,4.9334,0,0,0,4.8239,4.837,4.8328,4.8482,4.8446,4.8639,4.8638,4.8782,4.888,4.8868,4.9171,4.9174,4.9217,4.9245,4.9329,4.9402,4.943,0,0,4.8392,4.8387,4.848,4.8449,4.8645,4.8609,4.8813,4.892,4.8947,4.9097,4.9105,4.9225,4.9249,4.9333,4.9595,4.9617,0,0,0,4.8521,4.8587,4.8644,4.8738,4.8825,4.8902,4.8981,4.9021,4.915,4.902,4.9278,4.9293,4.9343,4.9379,4.9398,4.9443,4.919,4.9189,4.9189,4.8708,4.8739,4.8894,4.8951,4.9042,4.9124,4.9201,4.9268,4.927,4.9331,4.9375,4.9531,4.9572,4.9586,4.9633,4.9416,4.9416,4.9416,4.9416,4.8936,4.9035,4.9039,4.919,4.9222,4.9349,4.9433,4.9431,4.9554,4.9499,4.9544,4.9482,4.961,4.9652,4.9421,4.942,4.9419,4.9419,4.9419,4.9062,4.9115,4.9164,4.9306,4.9411,4.9463,4.9583,4.9606,4.9629,4.9674,4.9725,4.9724,4.9727,4.9697,4.9697,4.9698,4.9698,4.9699,4.9699,4.9174,4.9228,4.9326,4.9433,4.9498,4.9586,4.9672,4.9736,4.9813,4.982,4.9821,4.9818,4.9617,4.9567,4.9708,4.9706,4.9705,4.9704,4.9704,4.9394,4.9349,4.9501,4.9567,4.9695,4.9799,4.9829,4.9959,5.0015,5.0073,5.0061,4.9909,4.9904,4.9889,4.9848,5.0053,5.0053,5.0053,5.0053,4.9501,4.9503,4.9665,4.9769,4.9873,4.9917,5.0088,5.0157,5.022,5.0257,5.0231,5.0177,5.0161,5.0167,5.0146,5.0107,5.0374,5.0374,5.0375,4.9639,4.9652,4.9794,4.9858,4.9961,5.0049,5.0211,5.0329,5.0391,5.0388,5.0287,5.0273,5.0188,5.0158,5.0152,5.0119,5.0049,0,0]}]]